Location: Marsån
(66.4167°N, 22.2833°E)
Time: 08:45:41
(UTC+00:00)

Cosmos-2242 - Pass Details

Date: 24 February 2024
Orbit: 579 x 606 km, 82.5° (Epoch: 20 April)

Event Time Altitude Azimuth Distance (km) Brightness Sun altitude
Rises 16:06:15 0° 341° (NNW) 2,892 6.6 -4.9°
Reaches altitude 10° 16:08:29 10° 341° (NNW) 1,984 5.8 -5.2°
Maximum altitude 16:12:53 83° 256° (WSW) 625 3.2 -5.6°
Drops below altitude 10° 16:17:16 10° 167° (SSE) 1,968 5.6 -6.0°
Sets 16:19:28 0° 167° (SSE) 2,866 6.4 -6.2°
